Brownsville, TX

11:13 AM CST on December 06, 2016 (GMT -0600)
Brownsville-South Padre I International

Weather History for KBRO - February, 2013

Change the Weather History Date:

Saturday, February 23, 2013

  Actual Average Record
Temperature  
Mean Temperature 65 °F 65 °F  
Max Temperature 73 °F 75 °F 92 °F (1917)
Min Temperature 56 °F 56 °F 25 °F (1901)
Degree Days  
Heating Degree Days 0 3  
Month to date heating degree days 24 92  
Since 1 July heating degree days 280 491  
Cooling Degree Days 0 3  
Month to date cooling degree days 138 64  
Year to date cooling degree days 212 123  
Growing Degree Days 15 (Base 50)    
Moisture  
Dew Point 57 °F    
Average Humidity 75    
Maximum Humidity 93    
Minimum Humidity 57    
Precipitation  
Precipitation T in 0.03 in 1.02 in (1923)
Month to date precipitation 0.01 0.91  
Year to date precipitation 1.48 2.18  
Sea Level Pressure  
Sea Level Pressure 29.92 in    
Wind  
Wind Speed 10 mph (NNE)    
Max Wind Speed 18 mph    
Max Gust Speed 24 mph    
Visibility 10 miles    
Events      
T = Trace of Precipitation, MM = Missing Value Source: NWS Daily Summary

Daily Weather History Graph

Daily Weather History Graph

Search for Another Location

Airport or City:

Trip Planner

Search our weather history database for the weather conditions in past years. The results will help you decide how hot, cold, wet, or windy it might be!

Date:

Astronomy

Feb. 23, 2013 Rise Set
Actual Time 6:58 AM CST 6:28 PM CST
Civil Twilight 6:34 AM CST 6:51 PM CST
Nautical Twilight 6:08 AM CST 7:18 PM CST
Astronomical Twilight 5:41 AM CST 7:44 PM CST
Moon 4:45 PM CST (2/23) 5:13 AM CST (2/23)
Length of Visible Light 12h 16m
Length of Day
11h 29m
Waxing Gibbous, 95% of the Moon is Illuminated
Feb 23
Waxing Gibbous
Feb 25
Full
Mar 4
Last Quarter
Mar 11
New
Mar 19
First Quarter

Hourly Weather History & Observations

Time (CST) Temp. Dew Point Humidity Pressure Visibility Wind Dir Wind Speed Gust Speed Precip Events Conditions
12:53 AM 66.9 °F 64.0 °F 90% 29.87 in 10.0 mi North 10.4 mph 18.4 mph N/A   Overcast
1:24 AM 66.2 °F 64.4 °F 94% 29.87 in 10.0 mi North 10.4 mph 16.1 mph N/A   Overcast
1:53 AM 66.0 °F 63.0 °F 90% 29.88 in 8.0 mi North 10.4 mph 17.3 mph N/A   Overcast
2:53 AM 64.0 °F 61.0 °F 90% 29.88 in 9.0 mi North 12.7 mph 19.6 mph 0.00 in   Overcast
3:53 AM 62.1 °F 59.0 °F 90% 29.89 in 10.0 mi North 15.0 mph 23.0 mph 0.00 in   Overcast
4:39 AM 60.8 °F 57.2 °F 88% 29.88 in 10.0 mi North 12.7 mph 24.2 mph 0.00 in   Overcast
4:53 AM 61.0 °F 57.0 °F 87% 29.88 in 10.0 mi North 16.1 mph 23.0 mph 0.00 in   Overcast
5:17 AM 60.8 °F 55.4 °F 82% 29.88 in 10.0 mi North 12.7 mph 20.7 mph N/A   Overcast
5:48 AM 62.6 °F 55.4 °F 77% 29.90 in 10.0 mi North 11.5 mph 21.9 mph N/A   Overcast
5:53 AM 62.1 °F 55.9 °F 80% 29.89 in 10.0 mi North 13.8 mph - N/A   Overcast
6:53 AM 62.1 °F 57.0 °F 84% 29.91 in 10.0 mi NNE 11.5 mph - N/A   Overcast
7:53 AM 63.0 °F 57.0 °F 81% 29.94 in 10.0 mi North 9.2 mph 20.7 mph N/A   Overcast
8:01 AM 62.6 °F 57.2 °F 82% 29.93 in 10.0 mi North 10.4 mph - N/A   Overcast
8:53 AM 63.0 °F 57.9 °F 84% 29.95 in 10.0 mi North 8.1 mph - N/A   Overcast
9:53 AM 64.0 °F 57.0 °F 78% 29.98 in 10.0 mi North 13.8 mph 18.4 mph N/A   Overcast
10:14 AM 64.4 °F 57.2 °F 77% 29.99 in 10.0 mi North 15.0 mph 19.6 mph N/A   Overcast
10:53 AM 64.9 °F 57.0 °F 75% 29.99 in 10.0 mi NNW 12.7 mph - N/A   Overcast
11:53 AM 66.0 °F 55.9 °F 70% 29.98 in 10.0 mi North 10.4 mph - N/A   Mostly Cloudy
12:53 PM 66.9 °F 55.0 °F 66% 29.96 in 10.0 mi North 13.8 mph 20.7 mph N/A   Overcast
1:53 PM 66.9 °F 54.0 °F 63% 29.95 in 10.0 mi NNW 12.7 mph 18.4 mph N/A   Overcast
2:53 PM 70.0 °F 55.0 °F 59% 29.92 in 10.0 mi NNE 10.4 mph - N/A   Mostly Cloudy
3:10 PM 71.6 °F 55.4 °F 57% 29.91 in 10.0 mi NNE 10.4 mph - N/A   Partly Cloudy
3:36 PM 71.6 °F 55.4 °F 57% 29.91 in 10.0 mi North 10.4 mph - N/A   Mostly Cloudy
3:53 PM 71.1 °F 55.9 °F 59% 29.90 in 10.0 mi North 10.4 mph - N/A   Scattered Clouds
4:53 PM 70.0 °F 55.0 °F 59% 29.88 in 10.0 mi NE 11.5 mph - N/A   Clear
5:53 PM 66.9 °F 54.0 °F 63% 29.88 in 10.0 mi NE 10.4 mph - N/A   Clear
6:53 PM 63.0 °F 54.0 °F 72% 29.89 in 10.0 mi ENE 6.9 mph - N/A   Clear
7:53 PM 60.1 °F 54.0 °F 80% 29.91 in 10.0 mi East 4.6 mph - N/A   Clear
8:53 PM 59.0 °F 55.0 °F 87% 29.93 in 10.0 mi East 3.5 mph - N/A   Clear
9:53 PM 59.0 °F 55.9 °F 90% 29.94 in 10.0 mi NE 3.5 mph - N/A   Clear
10:53 PM 57.9 °F 55.9 °F 93% 29.93 in 9.0 mi Calm Calm - N/A   Clear
11:53 PM 57.0 °F 55.9 °F 96% 29.91 in 7.0 mi Calm Calm - N/A   Partly Cloudy